Home   Weather   Riverview   Past weeks
Flag for Canada

Past Weather in Riverview, New Brunswick, Canada — Yesterday and Last 2 Weeks

Now
48 °F

Partly sunny.


Feels Like: 47 °F
Forecast: 56 / 50 °F
Wind: 3 mph from West

Location: Moncton

Current Time: Oct 14, 2019 at 11:32:31 am

Latest Report: Oct 14, 2019 at 10:00 am


Visibility: 15 mi

Pressure: 30.09 "Hg

Humidity: 100%

Dew Point: 48 °F

Location of RiverviewLocation

Past Weather in Riverview — Graph

°F

Riverview Temperature Yesterday

Maximum temperature yesterday: 54 °F (at 4:00 pm)
Minimum temperature yesterday: 46 °F (at 7:23 am)
Average temperature yesterday: 49 °F

High & Low Weather Summary for the Past Weeks

 TemperatureHumidityPressure
High63 °F (Oct 6, 3:00 pm)100% (Oct 2, 1:00 am)30.47 "Hg (Oct 2, 1:00 am)
Low30 °F (Oct 6, 6:00 am)36% (Sep 30, 4:00 pm)29.54 "Hg (Oct 2, 5:33 am)
Average48 °F80%30.13 "Hg
* Reported Sep 29 10:00 am — Oct 14 10:00 am, Riverview. Weather by CustomWeather, © 2019

Note: Actual official high and low records may vary slightly from our data, if they occured in-between our weather recording intervals... More about our weather records

Advertising

Riverview Weather History for the Previous 24 Hours

Scroll right to see more
 ConditionsComfort  
Time TempWeatherWind HumidityBarometerVisibility
10:00 am
Mon, Oct 14
48 °FPartly sunny.3 mph100%30.09 "Hg15 mi
9:00 am46 °FPartly sunny.2 mph100%30.07 "Hg15 mi
8:00 am45 °FPartly sunny.2 mph100%30.05 "Hg8 mi
7:00 am43 °FFog.No wind100%30.05 "Hg1 mi
6:16 am45 °FFog.No wind100%30.06 "Hg1 mi
5:38 am46 °FFog.3 mph100%30.06 "Hg1 mi
4:00 am48 °FFog.2 mph100%30.03 "Hg8 mi
3:00 am48 °FPassing clouds.5 mph100%30.04 "Hg15 mi
2:00 am50 °FPassing clouds.5 mph94%30.03 "Hg15 mi
1:00 am50 °FPassing clouds.3 mph94%30.02 "Hg15 mi
12:00 am50 °FPassing clouds.3 mph94%30.02 "Hg15 mi
11:00 pm
Sun, Oct 13
50 °FPassing clouds.5 mph94%30.02 "Hg15 mi
10:00 pm50 °FPassing clouds.3 mph94%30.01 "Hg15 mi
9:00 pm50 °FPassing clouds.5 mph94%30.01 "Hg15 mi
8:00 pm48 °FPassing clouds.5 mph100%30.00 "Hg15 mi
7:00 pm48 °FPassing clouds.3 mph94%29.98 "Hg15 mi
6:32 pm52 °FPartly sunny.3 mph88%29.98 "Hg15 mi
6:00 pm52 °FPartly sunny.8 mph88%29.98 "Hg15 mi
5:00 pm52 °FPartly sunny.5 mph88%29.98 "Hg15 mi
4:00 pm54 °FPartly sunny.6 mph82%29.97 "Hg15 mi
3:00 pm52 °FBroken clouds.7 mph88%29.97 "Hg15 mi
2:00 pm50 °FPartly sunny.8 mph94%29.96 "Hg15 mi
1:00 pm50 °FPartly sunny.6 mph88%29.96 "Hg15 mi
12:00 pm50 °FPartly sunny.6 mph88%29.97 "Hg15 mi
11:00 am48 °FBroken clouds.6 mph94%29.97 "Hg15 mi
Weather by CustomWeather, © 2019

See weather overview